Hourly Weather Kızıltepe

Today, 2 August, Monday

Time Temperature Precipitation Wind Pressure Humidity
00:00 +36°C° 0 mm 3 mps 710 mmHg 20%
01:00 +35°C° 0 mm 3 mps 710 mmHg 22%
02:00 +34°C° 0 mm 3 mps 710 mmHg 25%
03:00 +34°C° 0 mm 3 mps 710 mmHg 27%
04:00 +33°C° 0 mm 3 mps 710 mmHg 29%
05:00 +33°C° 0 mm 3 mps 710 mmHg 31%
06:00 +31°C° 0 mm 3 mps 711 mmHg 33%
07:00 +34°C° 0 mm 4 mps 711 mmHg 29%
08:00 +36°C° 0 mm 4 mps 712 mmHg 26%
09:00 +38°C° 0 mm 4 mps 712 mmHg 22%
10:00 +39°C° 0 mm 3 mps 712 mmHg 20%
11:00 +42°C° 0 mm 3 mps 712 mmHg 18%
12:00 +42°C° 0 mm 2 mps 712 mmHg 15%
13:00 +43°C° 0 mm 2 mps 711 mmHg 14%
14:00 +43°C° 0 mm 2 mps 711 mmHg 13%
15:00 +45°C° 0 mm 2 mps 710 mmHg 12%
16:00 +44°C° 0 mm 3 mps 710 mmHg 13%
17:00 +44°C° 0 mm 4 mps 710 mmHg 14%
18:00 +43°C° 0 mm 5 mps 710 mmHg 14%
19:00 +41°C° 0 mm 4 mps 711 mmHg 17%
20:00 +40°C° 0 mm 4 mps 711 mmHg 21%
21:00 +37°C° 0 mm 3 mps 712 mmHg 24%
22:00 +36°C° 0 mm 3 mps 712 mmHg 24%
23:00 +36°C° 0 mm 2 mps 712 mmHg 25%

Tomorrow, 3 August, Tuesday

Time Temperature Precipitation Wind Pressure Humidity
00:00 +35°C° 0 mm 2 mps 712 mmHg 25%
01:00 +35°C° 0 mm 2 mps 712 mmHg 27%
02:00 +34°C° 0 mm 2 mps 711 mmHg 28%
03:00 +32°C° 0 mm 2 mps 711 mmHg 29%
04:00 +32°C° 0 mm 2 mps 712 mmHg 30%
05:00 +32°C° 0 mm 2 mps 712 mmHg 30%
06:00 +32°C° 0 mm 2 mps 712 mmHg 31%
07:00 +35°C° 0 mm 3 mps 713 mmHg 28%
08:00 +37°C° 0 mm 3 mps 713 mmHg 25%
09:00 +38°C° 0 mm 4 mps 713 mmHg 22%
10:00 +41°C° 0 mm 4 mps 713 mmHg 20%
11:00 +42°C° 0 mm 4 mps 713 mmHg 18%
12:00 +43°C° 0 mm 4 mps 713 mmHg 16%
13:00 +44°C° 0 mm 4 mps 713 mmHg 15%
14:00 +44°C° 0 mm 4 mps 712 mmHg 14%
15:00 +45°C° 0 mm 4 mps 712 mmHg 12%
16:00 +45°C° 0 mm 3 mps 712 mmHg 12%
17:00 +44°C° 0 mm 3 mps 712 mmHg 12%
18:00 +44°C° 0 mm 3 mps 711 mmHg 12%
19:00 +42°C° 0 mm 3 mps 712 mmHg 14%
20:00 +40°C° 0 mm 2 mps 712 mmHg 16%
21:00 +38°C° 0 mm 2 mps 712 mmHg 19%
22:00 +37°C° 0 mm 2 mps 712 mmHg 20%
23:00 +37°C° 0 mm 2 mps 713 mmHg 22%

Day after tomorrow, 4 August, Wednesday

Time Temperature Precipitation Wind Pressure Humidity
00:00 +36°C° 0 mm 2 mps 713 mmHg 24%
01:00 +35°C° 0 mm 2 mps 713 mmHg 26%
02:00 +34°C° 0 mm 2 mps 713 mmHg 28%
03:00 +34°C° 0 mm 2 mps 713 mmHg 30%
04:00 +34°C° 0 mm 2 mps 713 mmHg 30%
05:00 +32°C° 0 mm 1 mps 713 mmHg 30%
06:00 +32°C° 0 mm 1 mps 713 mmHg 30%
07:00 +34°C° 0 mm 1 mps 714 mmHg 27%
08:00 +36°C° 0 mm 1 mps 714 mmHg 24%
09:00 +39°C° 0 mm 1 mps 715 mmHg 21%
10:00 +41°C° 0 mm 1 mps 715 mmHg 18%
11:00 +42°C° 0 mm 1 mps 714 mmHg 16%
12:00 +44°C° 0 mm 1 mps 714 mmHg 14%
13:00 +45°C° 0 mm 2 mps 714 mmHg 13%
14:00 +46°C° 0 mm 2 mps 713 mmHg 12%
15:00 +47°C° 0 mm 3 mps 713 mmHg 11%
16:00 +46°C° 0 mm 3 mps 713 mmHg 11%
17:00 +45°C° 0 mm 3 mps 713 mmHg 12%
18:00 +45°C° 0 mm 3 mps 713 mmHg 12%
19:00 +43°C° 0 mm 3 mps 713 mmHg 14%
20:00 +41°C° 0 mm 2 mps 713 mmHg 15%
21:00 +39°C° 0 mm 1 mps 713 mmHg 17%
22:00 +39°C° 0 mm 1 mps 713 mmHg 17%
23:00 +37°C° 0 mm 1 mps 713 mmHg 18%

5 August, Thursday

Time Temperature Precipitation Wind Pressure Humidity
00:00 +36°C° 0 mm 1 mps 713 mmHg 19%
01:00 +36°C° 0 mm 1 mps 713 mmHg 20%
02:00 +35°C° 0 mm 1 mps 713 mmHg 20%
03:00 +34°C° 0 mm 1 mps 713 mmHg 21%
04:00 +34°C° 0 mm 1 mps 713 mmHg 22%
05:00 +35°C° 0 mm 2 mps 713 mmHg 23%
06:00 +34°C° 0 mm 2 mps 713 mmHg 24%
07:00 +35°C° 0 mm 1 mps 714 mmHg 21%
08:00 +37°C° 0 mm 1 mps 714 mmHg 19%
09:00 +40°C° 0 mm 1 mps 714 mmHg 16%
10:00 +42°C° 0 mm 1 mps 714 mmHg 15%
11:00 +43°C° 0 mm 1 mps 714 mmHg 14%
12:00 +45°C° 0 mm 1 mps 714 mmHg 12%
13:00 +45°C° 0 mm 3 mps 713 mmHg 13%
14:00 +45°C° 0 mm 4 mps 713 mmHg 14%
15:00 +45°C° 0 mm 5 mps 712 mmHg 15%
16:00 +45°C° 0 mm 5 mps 712 mmHg 14%
17:00 +44°C° 0 mm 4 mps 712 mmHg 14%
18:00 +44°C° 0 mm 3 mps 712 mmHg 13%
19:00 +42°C° 0 mm 3 mps 712 mmHg 16%
20:00 +40°C° 0 mm 4 mps 713 mmHg 18%
21:00 +38°C° 0 mm 4 mps 713 mmHg 21%
22:00 +37°C° 0 mm 3 mps 713 mmHg 22%
23:00 +36°C° 0 mm 3 mps 712 mmHg 24%

6 August, Friday

Time Temperature Precipitation Wind Pressure Humidity
00:00 +35°C° 0 mm 2 mps 712 mmHg 25%
01:00 +35°C° 0 mm 2 mps 712 mmHg 26%
02:00 +34°C° 0 mm 2 mps 712 mmHg 27%
03:00 +34°C° 0 mm 2 mps 712 mmHg 27%
04:00 +34°C° 0 mm 2 mps 712 mmHg 28%
05:00 +34°C° 0 mm 2 mps 712 mmHg 28%
06:00 +32°C° 0 mm 2 mps 712 mmHg 29%
07:00 +35°C° 0 mm 2 mps 712 mmHg 26%
08:00 +37°C° 0 mm 2 mps 713 mmHg 23%
09:00 +39°C° 0 mm 1 mps 713 mmHg 20%
10:00 +40°C° 0 mm 1 mps 713 mmHg 18%
11:00 +42°C° 0 mm 1 mps 713 mmHg 16%
12:00 +43°C° 0 mm 2 mps 712 mmHg 13%
13:00 +45°C° 0 mm 2 mps 712 mmHg 12%
14:00 +46°C° 0 mm 3 mps 711 mmHg 11%
15:00 +47°C° 0 mm 4 mps 711 mmHg 10%
16:00 +47°C° 0 mm 4 mps 711 mmHg 10%
17:00 +45°C° 0 mm 4 mps 710 mmHg 10%
18:00 +45°C° 0 mm 4 mps 710 mmHg 10%
19:00 +42°C° 0 mm 4 mps 711 mmHg 14%
20:00 +40°C° 0 mm 4 mps 711 mmHg 18%
21:00 +37°C° 0 mm 4 mps 711 mmHg 22%
22:00 +37°C° 0 mm 4 mps 711 mmHg 22%
23:00 +36°C° 0 mm 3 mps 711 mmHg 23%

7 August, Saturday

Time Temperature Precipitation Wind Pressure Humidity
00:00 +36°C° 0 mm 3 mps 711 mmHg 24%
01:00 +35°C° 0 mm 3 mps 711 mmHg 25%
02:00 +35°C° 0 mm 3 mps 711 mmHg 27%
03:00 +34°C° 0 mm 3 mps 711 mmHg 28%
04:00 +34°C° 0 mm 3 mps 711 mmHg 29%
05:00 +32°C° 0 mm 2 mps 712 mmHg 29%
06:00 +32°C° 0 mm 2 mps 712 mmHg 30%
07:00 +35°C° 0 mm 2 mps 712 mmHg 27%
08:00 +37°C° 0 mm 2 mps 713 mmHg 24%
09:00 +39°C° 0 mm 2 mps 713 mmHg 20%
10:00 +41°C° 0 mm 2 mps 713 mmHg 17%
11:00 +42°C° 0 mm 2 mps 713 mmHg 14%
12:00 +45°C° 0 mm 2 mps 713 mmHg 10%
13:00 +45°C° 0 mm 3 mps 712 mmHg 10%
14:00 +45°C° 0 mm 3 mps 712 mmHg 9%
15:00 +47°C° 0 mm 4 mps 712 mmHg 8%
16:00 +45°C° 0 mm 4 mps 712 mmHg 9%
17:00 +46°C° 0 mm 5 mps 711 mmHg 9%
18:00 +45°C° 0 mm 5 mps 711 mmHg 10%
19:00 +42°C° 0 mm 4 mps 712 mmHg 11%
20:00 +40°C° 0 mm 3 mps 712 mmHg 13%
21:00 +38°C° 0 mm 2 mps 712 mmHg 14%
22:00 +37°C° 0 mm 2 mps 712 mmHg 15%
23:00 +36°C° 0 mm 2 mps 713 mmHg 16%
Show more